Weather History for Newport, VT

Change the Weather History Date:

Thursday, April 17, 2014

  Actual Average Record
Temperature  
Mean Temperature 32 °F -  
Max Temperature 46 °F 58 °F 79 °F (1976)
Min Temperature 17 °F 33 °F 13 °F (1939)
Degree Days  
Heating Degree Days 34    
Moisture  
Dew Point 13 °F    
Average Humidity 51    
Maximum Humidity 81    
Minimum Humidity 26    
Precipitation  
Precipitation 0.00 in - - ()
Sea Level Pressure  
Sea Level Pressure 30.67 in    
Wind  
Wind Speed 4 mph (SSE)    
Max Wind Speed 12 mph    
Max Gust Speed 18 mph    
Visibility 10 miles    
Events      
Averages and records for this station are not official NWS values.
T = Trace of Precipitation, MM = Missing Value Source: NWS Daily Summary

Daily Weather History Graph

Daily Weather History Graph

Search for Another Location

Airport:

Trip Planner

Search our weather history database for the weather conditions in past years. The results will help you decide how hot, cold, wet, or windy it might be!

Date:

Astronomy

Apr. 17, 2014 Rise Set
Actual Time 6:01 AM EDT 7:36 PM EDT
Civil Twilight 5:30 AM EDT 8:07 PM EDT
Nautical Twilight 4:52 AM EDT 8:45 PM EDT
Astronomical Twilight 4:12 AM EDT 9:25 PM EDT
Moon 10:24 PM EDT (4/17) 7:26 AM EDT (4/17)
Length of Visible Light 14h 37m
Length of Day
13h 35m
Waning Gibbous, 94% of the Moon is Illuminated
Apr 17
Waning Gibbous
Apr 22
Last Quarter
Apr 29
New
May 6
First Quarter
May 14
Full

Hourly Weather History & Observations

Time (EDT) Temp. Windchill Dew Point Humidity Pressure Visibility Wind Dir Wind Speed Gust Speed Precip Events Conditions
12:15 AM 21.2 °F - 13.3 °F 72% 30.63 in 10.0 mi Calm Calm - N/A   Clear
12:35 AM 18.5 °F 11.7 °F 12.7 °F 78% 30.64 in 10.0 mi SE 4.6 mph - N/A   Clear
12:55 AM 19.6 °F - 14.0 °F 79% 30.64 in 10.0 mi Calm Calm - N/A   Clear
1:15 AM 19.4 °F 12.8 °F 14.0 °F 80% 30.65 in 10.0 mi SSW 4.6 mph - N/A   Clear
1:35 AM 19.0 °F 13.9 °F 14.2 °F 81% 30.65 in 10.0 mi SSW 3.5 mph - N/A   Clear
1:55 AM 19.4 °F 12.8 °F 14.0 °F 80% 30.65 in 10.0 mi SSW 4.6 mph - N/A   Clear
2:15 AM 18.7 °F 13.5 °F 13.1 °F 79% 30.66 in 10.0 mi South 3.5 mph - N/A   Clear
2:35 AM 18.1 °F 11.3 °F 12.9 °F 80% 30.66 in 10.0 mi SSE 4.6 mph - N/A   Clear
2:55 AM 17.8 °F - 12.2 °F 79% 30.67 in 10.0 mi Calm Calm - N/A   Clear
3:15 AM 18.1 °F - 12.9 °F 80% 30.67 in 10.0 mi Calm Calm - N/A   Clear
3:35 AM 18.0 °F - 12.9 °F 81% 30.68 in 10.0 mi Calm Calm - N/A   Clear
3:55 AM 17.4 °F 10.4 °F 12.2 °F 80% 30.69 in 10.0 mi SSW 4.6 mph - N/A   Clear
4:15 AM 17.6 °F 12.3 °F 12.2 °F 79% 30.69 in 10.0 mi South 3.5 mph - N/A   Clear
4:35 AM 17.1 °F 11.7 °F 11.8 °F 80% 30.69 in 10.0 mi SSE 3.5 mph - N/A   Clear
4:55 AM 17.2 °F - 12.2 °F 81% 30.70 in 10.0 mi Calm Calm - N/A   Clear
5:15 AM 17.8 °F 10.9 °F 12.2 °F 79% 30.71 in 10.0 mi SW 4.6 mph - N/A   Clear
5:35 AM 17.2 °F 11.9 °F 11.8 °F 79% 30.72 in 10.0 mi South 3.5 mph - N/A   Clear
5:55 AM 17.6 °F - 12.0 °F 79% 30.72 in 10.0 mi Calm Calm - N/A   Clear
6:15 AM 17.2 °F 11.9 °F 12.2 °F 81% 30.72 in 10.0 mi South 3.5 mph - N/A   Clear
6:35 AM 17.2 °F - 12.2 °F 81% 30.72 in 10.0 mi Calm Calm - N/A   Clear
6:55 AM 18.5 °F 13.3 °F 12.9 °F 79% 30.73 in 10.0 mi SW 3.5 mph - N/A   Clear
7:15 AM 18.7 °F 11.9 °F 13.8 °F 81% 30.74 in 10.0 mi SSW 4.6 mph - N/A   Clear
7:35 AM 20.3 °F - 14.7 °F 79% 30.74 in 10.0 mi Calm Calm - N/A   Clear
7:55 AM 21.9 °F - 14.9 °F 74% 30.75 in 10.0 mi Calm Calm - N/A   Clear
8:15 AM 23.4 °F 18.9 °F 14.7 °F 70% 30.76 in 10.0 mi SSW 3.5 mph - N/A   Clear
8:35 AM 24.6 °F 20.3 °F 14.9 °F 67% 30.76 in 10.0 mi SW 3.5 mph - N/A   Clear
8:55 AM 26.6 °F 22.6 °F 15.1 °F 62% 30.76 in 10.0 mi SW 3.5 mph - N/A   Clear
9:15 AM 28.4 °F 24.6 °F 14.4 °F 56% 30.76 in 10.0 mi SW 3.5 mph - N/A   Clear
9:35 AM 31.1 °F 27.7 °F 14.2 °F 50% 30.76 in 10.0 mi SSE 3.5 mph - N/A   Clear
9:55 AM 32.0 °F 27.5 °F 13.8 °F 47% 30.76 in 10.0 mi SSE 4.6 mph - N/A   Clear
10:15 AM 32.9 °F 29.8 °F 13.3 °F 44% 30.76 in 10.0 mi SE 3.5 mph - N/A   Clear
10:35 AM 33.4 °F - 13.1 °F 43% 30.76 in 10.0 mi Calm Calm - N/A   Clear
10:55 AM 35.1 °F 32.2 °F 14.0 °F 42% 30.75 in 10.0 mi ESE 3.5 mph - N/A   Clear
11:15 AM 36.0 °F 30.3 °F 15.8 °F 44% 30.75 in 10.0 mi ESE 6.9 mph - N/A   Clear
11:35 AM 36.7 °F 32.0 °F 13.5 °F 39% 30.74 in 10.0 mi SE 5.8 mph - N/A   Clear
11:55 AM 37.4 °F 31.4 °F 12.2 °F 36% 30.74 in 10.0 mi South 8.1 mph 17.3 mph N/A   Clear
12:15 PM 37.9 °F 31.5 °F 12.7 °F 36% 30.73 in 10.0 mi SSE 9.2 mph - N/A   Clear
12:35 PM 38.7 °F 33.6 °F 11.7 °F 33% 30.73 in 10.0 mi SSE 6.9 mph - N/A   Clear
12:55 PM 39.7 °F 33.7 °F 12.9 °F 33% 30.72 in 10.0 mi SE 9.2 mph - N/A   Clear
1:15 PM 40.5 °F 34.1 °F 11.1 °F 30% 30.72 in 10.0 mi South 10.4 mph - N/A   Clear
1:35 PM 41.0 °F 37.1 °F 14.5 °F 34% 30.71 in 10.0 mi SSE 5.8 mph - N/A   Clear
1:55 PM 41.5 °F 36.4 °F 14.4 °F 33% 30.70 in 10.0 mi SE 8.1 mph - N/A   Clear
2:15 PM 42.1 °F 36.1 °F 13.5 °F 31% 30.70 in 10.0 mi SSE 10.4 mph - N/A   Clear
2:35 PM 42.4 °F 38.8 °F 12.4 °F 29% 30.69 in 10.0 mi South 5.8 mph - N/A   Clear
2:55 PM 43.5 °F 39.4 °F 12.4 °F 28% 30.69 in 10.0 mi SSE 6.9 mph - N/A   Clear
3:15 PM 43.7 °F 40.3 °F 11.7 °F 27% 30.67 in 10.0 mi East 5.8 mph - N/A   Clear
3:35 PM 44.1 °F 40.8 °F 12.7 °F 28% 30.67 in 10.0 mi South 5.8 mph - N/A   Clear
3:55 PM 45.1 °F - 12.2 °F 26% 30.66 in 10.0 mi Calm Calm - N/A   Clear
4:15 PM 45.9 °F - 13.8 °F 28% 30.65 in 10.0 mi Calm Calm - N/A   Clear
4:35 PM 46.4 °F 45.2 °F 16.0 °F 30% 30.64 in 10.0 mi SE 3.5 mph - N/A   Clear
4:55 PM 46.2 °F 42.7 °F 13.8 °F 27% 30.63 in 10.0 mi SE 6.9 mph - N/A   Clear
5:15 PM 46.2 °F 42.7 °F 12.6 °F 26% 30.62 in 10.0 mi SSE 6.9 mph - N/A   Clear
5:35 PM 46.4 °F 44.3 °F 13.8 °F 27% 30.62 in 10.0 mi South 4.6 mph - N/A   Clear
5:55 PM 46.4 °F 41.5 °F 15.1 °F 28% 30.62 in 10.0 mi SSE 10.4 mph - N/A   Clear
6:15 PM 45.9 °F 41.2 °F 14.7 °F 29% 30.62 in 10.0 mi SE 9.2 mph - N/A   Clear
6:35 PM 45.5 °F 41.8 °F 12.4 °F 26% 30.61 in 10.0 mi South 6.9 mph - N/A   Clear
6:55 PM 44.1 °F 39.5 °F 16.5 °F 33% 30.60 in 10.0 mi SSE 8.1 mph - N/A   Clear
7:15 PM 43.7 °F 40.3 °F 14.5 °F 31% 30.60 in 10.0 mi South 5.8 mph - N/A   Clear
7:35 PM 42.4 °F 38.1 °F 13.6 °F 31% 30.60 in 10.0 mi South 6.9 mph - N/A   Clear
7:55 PM 41.9 °F 36.9 °F 13.3 °F 31% 30.60 in 10.0 mi South 8.1 mph - N/A   Clear
8:15 PM 40.6 °F 34.3 °F 15.3 °F 36% 30.59 in 10.0 mi South 10.4 mph - N/A   Clear
8:35 PM 40.1 °F 34.1 °F 12.9 °F 33% 30.60 in 10.0 mi South 9.2 mph - N/A   Clear
8:55 PM 39.7 °F 34.3 °F 12.6 °F 33% 30.60 in 10.0 mi South 8.1 mph - N/A   Clear
9:15 PM 39.2 °F 33.0 °F 12.9 °F 34% 30.60 in 10.0 mi SSE 9.2 mph - N/A   Clear
9:35 PM 38.3 °F 31.9 °F 13.6 °F 37% 30.60 in 10.0 mi SSE 9.2 mph - N/A   Clear
9:55 PM 38.3 °F 31.4 °F 13.1 °F 36% 30.59 in 10.0 mi South 10.4 mph - N/A   Clear
10:15 PM 37.8 °F 30.7 °F 14.0 °F 38% 30.59 in 10.0 mi SSE 10.4 mph - N/A   Clear
10:35 PM 38.3 °F 31.4 °F 12.4 °F 35% 30.59 in 10.0 mi SSE 10.4 mph 18.4 mph N/A   Clear
10:55 PM 37.6 °F 31.0 °F 12.4 °F 36% 30.59 in 10.0 mi South 9.2 mph - N/A   Clear
11:15 PM 37.0 °F 29.3 °F 13.3 °F 38% 30.59 in 10.0 mi South 11.5 mph - N/A   Clear
11:35 PM 36.5 °F 31.0 °F 14.0 °F 40% 30.59 in 10.0 mi South 6.9 mph - N/A   Clear
11:55 PM 35.2 °F 30.3 °F 14.7 °F 43% 30.60 in 10.0 mi South 5.8 mph - N/A   Clear